TimeCST,TemperatureF,Dew PointF,Humidity,Sea Level PressureIn,VisibilityMPH,Wind Direction,Wind SpeedMPH,Gust SpeedMPH,PrecipitationIn,Events,Conditions,WindDirDegrees,DateUTC
12:53 AM,18.0,7.0,62,30.38,10.0,Calm,Calm,-,N/A,,Clear,0,2014-01-29 06:53:00
1:53 AM,16.0,7.0,68,30.37,10.0,SW,4.6,-,N/A,,Clear,230,2014-01-29 07:53:00
2:53 AM,14.0,6.1,71,30.36,10.0,Calm,Calm,-,N/A,,Clear,0,2014-01-29 08:53:00
3:53 AM,15.1,6.1,68,30.34,10.0,South,4.6,-,N/A,,Clear,180,2014-01-29 09:53:00
4:53 AM,14.0,5.0,67,30.33,10.0,South,5.8,-,N/A,,Clear,180,2014-01-29 10:53:00
5:53 AM,12.9,6.1,74,30.32,10.0,SSE,4.6,-,N/A,,Clear,150,2014-01-29 11:53:00
6:53 AM,12.0,5.0,73,30.33,10.0,South,6.9,-,N/A,,Clear,180,2014-01-29 12:53:00
7:53 AM,15.1,6.1,68,30.33,10.0,SSE,4.6,-,N/A,,Clear,160,2014-01-29 13:53:00
8:53 AM,23.0,12.0,63,30.31,10.0,South,5.8,-,N/A,,Clear,170,2014-01-29 14:53:00
9:53 AM,30.9,12.0,46,30.31,10.0,South,9.2,-,N/A,,Clear,190,2014-01-29 15:53:00
10:53 AM,39.0,12.0,33,30.31,10.0,South,10.4,-,N/A,,Clear,170,2014-01-29 16:53:00
11:53 AM,46.0,10.0,23,30.27,10.0,SSW,13.8,20.7,N/A,,Clear,200,2014-01-29 17:53:00
12:53 PM,48.9,1.9,15,30.22,10.0,SSW,20.7,28.8,N/A,,Clear,210,2014-01-29 18:53:00
1:53 PM,51.1,3.0,14,30.17,10.0,SSW,17.3,24.2,N/A,,Clear,200,2014-01-29 19:53:00
2:53 PM,51.1,1.9,13,30.14,10.0,South,16.1,27.6,N/A,,Clear,190,2014-01-29 20:53:00
3:53 PM,50.0,-0.0,13,30.11,10.0,SSW,23.0,29.9,N/A,,Clear,200,2014-01-29 21:53:00
4:53 PM,48.0,1.0,14,30.09,10.0,South,17.3,28.8,N/A,,Clear,180,2014-01-29 22:53:00
5:53 PM,43.0,1.9,18,30.09,10.0,South,11.5,-,N/A,,Clear,180,2014-01-29 23:53:00
6:53 PM,37.9,3.9,24,30.09,10.0,South,10.4,-,N/A,,Clear,180,2014-01-30 00:53:00
7:53 PM,36.0,5.0,27,30.07,10.0,South,9.2,-,N/A,,Clear,170,2014-01-30 01:53:00
8:53 PM,37.0,8.1,30,30.04,10.0,South,13.8,-,N/A,,Clear,180,2014-01-30 02:53:00
9:53 PM,34.0,10.0,37,30.04,10.0,South,10.4,-,N/A,,Clear,180,2014-01-30 03:53:00
10:53 PM,35.1,10.9,37,30.00,10.0,South,12.7,-,N/A,,Clear,180,2014-01-30 04:53:00
11:53 PM,35.1,10.9,37,29.96,10.0,South,16.1,-,N/A,,Clear,180,2014-01-30 05:53:00